SL-12 R/B(2), 22966

Orbit data source: Space-Track

SL-12 R/B(2), 22966 is space debris in GEO originally from a launch on Thu, 20 Jan 1994 UTC launched from the Tyuratam Missile And Space Complex (TTMTR). Debris objects in space refer to the collection of defunct objects orbiting the Earth. Examples of debris include non-operational satellites, rocket bodies, and fragments generated from explosions, collisions, or faulty payload assembly.

Not visible in the next 10 days
Identifier
22966, 1994-002D
Orbit
GEO
Country
Flag of CISCIS
Related business
Manufacturer
RKKE
Mission
Spacecraft
Bus & Motor
BLOK DM2, Unknown motor
Mass
2,560 kg wet, 2,560 kg dry
Launch date (UTC)
1994-01-20 (32 years ago)
Launch vehicle
Unknown
Launch site
Tyuratam Missile And Space Complex (TTMTR)
Object type
Payload
Rocket body
Debris
Shape & HBR
Cyl + 1 Nozzle, 3.1 m
Radar Cross Section
23.597 m², Large (>1 m²)

Expand to show TLE details & history
Last TLE update: 17 hours ago

TLE from 17 hours ago
0 SL-12 R/B(2)
1 22966U 94002D   25308.89039853 -.00000207  00000-0  00000-0 0  9993
2 22966  14.0735 345.7153 0041447 144.9859 224.1500  0.99472195114854
Epoch: 2025-11-04T21:22Z
TLE epoch observation values (Epoch: 2025-11-04T21:22:10.432Z)
Latitude
2.14147°
Longitude
-10.67833°
Altitude
36,137.349 km
Speed
3.057 km/s
True Right ascension
23h 36m 56s
True Declination
2° 08' 22"
Sunlit
Object was in daylight at epoch
Visualization orbit readout
Latitude
Unknown
Longitude
Unknown
Altitude
Unknown
Speed
Unknown
Apparent Right ascension
Unknown
Apparent Declination
Unknown
Sunlit
N/A
Visualization observer readout
Local Sidereal Time
10:47:05
Azimuth
Unknown
Elevation
Unknown
Doppler factor
Unknown
Orbital elements
Apogee altitude
36,188.922 km
Perigee altitude
35,837.523 km
Semi-major axis
42,391.359 km
Eccentricity
0.00414
Inclination
14.0735°
RAAN
345.7153°
Arg. of periapsis
144.9859°
True anomaly
223.82041°
Mean anomaly
224.15°
Eccentric anomaly
223.98508°
Mean motion
0.24867 °/min
Orbital period
1,447.69 mins
BSTAR
0
Loading maneuver chart data...
Computing Atmospheric mass density...
Loading historical data...
Loading historical data...
Loading historical data...
Loading historical data...
Loading historical data...
Loading historical data...
Loading historical data...

Documentation

Showing up to 5 results
|